Location: Yecla
(38.6122°N, 1.1101°W)
Time: 05:18:58
(UTC+02:00)

ISS - Visible Passes

Search period start: 24 September 2017 00:00
Search period end: 04 October 2017 00:00
Orbit: 401 x 407 km, 51.6° (Epoch: 24 September)

Date Brightness Start Highest point End Pass type
(mag) Time Alt. Az. Time Alt. Az. Time Alt. Az.
24 Sep -1.8 20:33:11 10° SSE 20:34:51 13° SE 20:36:12 11° ESE visible
24 Sep -1.4 22:07:46 10° WSW 22:08:55 20° WSW 22:08:55 20° WSW visible
25 Sep -4.0 21:15:25 10° SW 21:18:40 72° SE 21:19:30 45° ENE visible
26 Sep -3.0 20:23:27 10° SSW 20:26:25 33° SE 20:29:25 10° ENE visible
26 Sep -1.7 22:00:06 10° W 22:02:34 26° NW 22:02:34 26° NW visible
27 Sep -2.8 21:07:19 10° WSW 21:10:28 45° NW 21:12:44 17° NE visible
28 Sep -3.8 20:14:50 10° SW 20:18:05 88° NW 20:21:22 10° NE visible
28 Sep -1.2 21:52:51 10° WNW 21:54:58 16° NNW 21:55:25 15° NNW visible
29 Sep -1.6 20:59:42 10° W 21:02:22 23° NNW 21:05:03 10° NNE visible
30 Sep -0.9 21:46:05 10° NNW 21:47:04 11° NNW 21:47:42 11° N visible
01 Oct -1.1 20:52:29 10° NW 20:54:22 14° NNW 20:56:14 10° NNE visible
03 Oct -0.9 20:45:56 10° NNW 20:46:25 10° NNW 20:46:54 10° N visible
